GSAT0203 (GALILEO 7)

Last updated on Tue Sep 16 2025 00:02:34 GMT+0000 (Coordinated Universal Time)

1 40544U 15017A 25258.10498436 -.00000105 00000+0 00000+0 0 9993 2 40544 56.8683 349.0982 0004537 247.4798 112.5058 1.70476191 64514
UTC large
Height (km)
Speed (km/s)
/
Latitude / Longitude
Inclination (degrees)
Orbital Period (minutes)
Azimuth
Elevation
Range (km)
Doppler Factor

Next 0 passes for location: London (51.5072 / 0.1276)

Sorry there are no passes over London.